Terminal Aerodrome Forecast
Issued by NWS Duluth, MN

Home | Current Version | Previous Version | Text Only | Print | Product List | Glossary On
Versions: 1 2 3 4 5 6 7 8 9 10 11 12 13 14 15 16 17 18 19
750
FTUS43 KDLH 181128
TAFDLH
TAF
KDLH 181128Z 1812/1912 21010KT P6SM FEW250 WS020/23040KT
     FM181500 22014KT P6SM SCT250
     FM181800 26016G22KT P6SM FEW250
     FM190200 27012KT P6SM FEW250
     FM190800 27008KT P6SM FEW200=

USA.gov is the U.S. government's official web portal to all federal, state and local government web resources and services.